CZ-6A DEB, 61818

Orbit data source: Space-Track

CZ-6A DEB, 61818 is space debris in LEO originally from a launch on Tue, 06 Aug 2024 UTC launched from the Taiyaun Space Center, China (TSC). Debris objects in space refer to the collection of defunct objects orbiting the Earth. Examples of debris include non-operational satellites, rocket bodies, and fragments generated from explosions, collisions, or faulty payload assembly.

Loading next visibility...
Identifier
61818, 2024-140ACJ
Orbit
LEO
Country
Flag of CNCN / PRC
Related business
Manufacturer
SAST
Mission
Spacecraft
Bus & Motor
Unknown
Mass
Unknown
Launch date (UTC)
2024-08-06 (2 years ago)
Launch vehicle
Unknown
Launch site
Taiyaun Space Center, China (TSC)
Object type
Payload
Rocket body
Debris
Shape & HBR
Unknown shape, 0.1 m
Radar Cross Section
Medium (>0.1 m² and <1 m²)

Expand to show TLE details & history
Last TLE update: 13 hours ago

TLE from 13 hours ago
0 CZ-6A DEB
1 61818U 24140ACJ 26171.29304918  .00021965  00000-0  26940-2 0  9994
2 61818  89.1632 282.7553 0094928 127.3948 233.5965 14.79815370 92620
Epoch: 2026-06-20T07:01Z
TLE epoch observation values (Epoch: 2026-06-20T07:01:59.449Z)
Latitude
-0.00007°
Longitude
-91.25216°
Altitude
672.942 km
Speed
7.499 km/s
True Right ascension
18h 51m 01s
True Declination
0° 00' 00"
Sunlit
Object was in full shadow at epoch
Visualization orbit readout
Latitude
Unknown
Longitude
Unknown
Altitude
Unknown
Speed
Unknown
Apparent Right ascension
Unknown
Apparent Declination
Unknown
Sunlit
N/A
Visualization observer readout
Local Sidereal Time
07:13:44
Azimuth
Unknown
Elevation
Unknown
Doppler factor
Unknown
Orbital elements
Apogee altitude
693.268 km
Perigee altitude
560.276 km
Semi-major axis
7,004.909 km
Eccentricity
0.00949
Inclination
89.1632°
RAAN
282.7553°
Arg. of periapsis
127.3948°
True anomaly
232.72714°
Mean anomaly
233.5965°
Eccentric anomaly
233.16121°
Mean motion
3.70203 °/min
Orbital period
97.24 mins
BSTAR
0.002694
Loading maneuver chart data...
Computing Atmospheric mass density...
Loading historical data...
Loading historical data...
Loading historical data...
Loading historical data...
Loading historical data...
Loading historical data...
Loading historical data...

Documentation

Showing up to 5 results
|